Regional Weather Roundup
Issued by NWS Midland/Odessa, TX

Home | Current Version | Previous Version | Text Only | Print | Product List | Glossary On
Versions: 1 2 3 4 5 6 7 8 9 10 11 12 13 14 15 16 17 18 19 20 21 22 23 24 25 26 27 28 29 30 31 32 33 34 35 36 37 38 39 40 41 42 43 44 45 46 47 48 49 50
000
ASUS44 KMAF 250301
RWRMAF
MIDLAND AREA WEATHER ROUNDUP
NATIONAL WEATHER SERVICE MIDLAND TX
900 PM CST TUE JAN 24 2017

...IN SOUTHWEST TEXAS AND SOUTHEAST NEW MEXICO...

CITY           SKY/WX    TMP DP  RH WIND       PRES   REMARKS
ALPINE         PTCLDY    52  29  41 CALM      29.91R
ANDREWS        FAIR      51  20  29 W9        29.81R
ARTESIA        CLEAR     45  14  29 W15       29.83R WCI  38
BIG SPRING     PTCLDY    53  27  36 W7        29.82R
CARLSBAD       CLEAR     48  16  27 W13       29.82R
DRYDEN           N/A     65  32  29 N15G24    29.74R
FORT STOCKTON  CLEAR     54  30  40 NW8       29.84R
GUAD PASS      CLEAR     40  15  36 W40G49    29.82S WCI  27
HOBBS          NOT AVBL
MARFA          CLEAR     47  30  51 CALM      29.88R
MIDLAND AIRPK  CLEAR     56  24  28 W10       29.82R
MIDLAND INTL   CLEAR     53  26  35 W9        29.81R
ODESSA         CLEAR     53  24  32 NW13      29.82R
PECOS          CLEAR     54  27  35 W12       29.84R
PRESIDIO       FAIR      64  31  29 W8        29.78R
SEMINOLE       CLEAR     46  18  33 CALM      29.81R
SNYDER         CLEAR     50  27  41 W8        29.77R
WINK           CLEAR     52  25  35 NW12      29.82R
$$
...OTHER STATIONS IN TEXAS...

CITY           SKY/WX    TMP DP  RH WIND       PRES   REMARKS
ABILENE        CLOUDY    60  31  33 NW9       29.73R
AMARILLO       CLEAR     41  14  33 W13       29.75R WCI  34
AUSTIN         PTCLDY    68  63  84 S7        29.67R
BROWNSVILLE    PTCLDY    73  67  81 S15G24    29.73R
CORPUS CHRISTI PTCLDY    70  67  90 S21       29.68S
DALLAS FTW     CLOUDY    70  56  61 W6        29.64R
DEL RIO        CLOUDY    69  46  43 E8        29.62S
EL PASO        MOCLDY    48  17  29 NW20      29.88R
HOUSTON INT    CLOUDY    70  64  81 S14G22    29.75R
LUBBOCK        CLEAR     43  14  31 NW9       29.76R WCI  38
SAN ANGELO     CLOUDY    59  34  39 NW7       29.74R
SAN ANTONIO    MOCLDY    67  61  81 SE8       29.68R
WACO           PTCLDY    68  61  78 S17       29.63R
WICHITA FALLS  NOT AVBL
$$
...OTHER LOCATIONS IN NEW MEXICO...

CITY           SKY/WX    TMP DP  RH WIND       PRES   REMARKS
ALAMAGORDO     PTCLDY    37  16  41 S3        29.92R
ALBUQUERQUE    PTCLDY    33  16  49 W9        29.87R WCI  25
CANNON AFB     CLEAR     39  10  29 NW12      29.78R WCI  32
CLOVIS         CLEAR     36  10  35 NW12      29.77R WCI  27
HOLLOMAN AFB   CLEAR     40  19  43 SE5       29.94R WCI  36
ROSWELL        CLEAR     46  13  26 W16       29.82R WCI  39
RUIDOSO        CLEAR     32   7  34 W20G26    29.85R WCI  20
SANTA FE       CLEAR     28  18  66 SW15      29.81R WCI  16
TRUTH OR CONSE CLEAR     36  21  54 W10       29.91R WCI  28
TUCUMCARI      CLEAR     38  16  40 W14       29.76R WCI  30
$$




USA.gov is the U.S. government's official web portal to all federal, state and local government web resources and services.